TimeEDT,TemperatureF,Dew PointF,Humidity,Sea Level PressureIn,VisibilityMPH,Wind Direction,Wind SpeedMPH,Gust SpeedMPH,PrecipitationIn,Events,Conditions,WindDirDegrees,DateUTC
12:52 AM,53.1,51.1,93,30.18,5.0,SE,9.2,-,0.00,Rain,Light Rain,130,2013-10-30 04:52:00
1:39 AM,53.6,51.8,94,30.18,2.5,ESE,6.9,-,0.02,Rain,Light Rain,120,2013-10-30 05:39:00
1:52 AM,53.1,53.1,100,30.17,3.0,Calm,Calm,-,0.03,Rain,Light Rain,0,2013-10-30 05:52:00
1:56 AM,53.6,53.6,100,30.18,2.5,East,3.5,-,0.01,Rain,Light Rain,100,2013-10-30 05:56:00
2:13 AM,53.6,51.8,94,30.17,2.0,ESE,6.9,-,0.04,Rain,Light Rain,110,2013-10-30 06:13:00
2:52 AM,53.1,53.1,100,30.16,2.5,Calm,Calm,-,0.07,Rain,Light Rain,0,2013-10-30 06:52:00
3:52 AM,53.1,53.1,100,30.14,2.5,ESE,6.9,-,0.05,Rain,Light Rain,120,2013-10-30 07:52:00
4:29 AM,53.6,53.6,100,30.14,3.0,ESE,5.8,-,0.00,,Overcast,120,2013-10-30 08:29:00
4:37 AM,53.6,53.6,100,30.14,2.5,East,3.5,-,0.00,,Overcast,100,2013-10-30 08:37:00
4:52 AM,54.0,54.0,100,30.13,2.5,ESE,4.6,-,0.00,,Overcast,120,2013-10-30 08:52:00
5:33 AM,53.6,53.6,100,30.15,2.5,SE,3.5,-,0.02,Rain,Light Rain,130,2013-10-30 09:33:00
5:52 AM,54.0,54.0,100,30.14,2.5,SE,5.8,-,0.02,Rain,Light Rain,130,2013-10-30 09:52:00
6:26 AM,53.6,53.6,100,30.15,2.0,ESE,4.6,-,0.01,,Light Drizzle,110,2013-10-30 10:26:00
6:52 AM,55.0,55.0,100,30.14,2.0,Calm,Calm,-,0.01,,Light Drizzle,0,2013-10-30 10:52:00
7:52 AM,55.0,55.0,100,30.15,0.5,South,4.6,-,0.00,,Overcast,170,2013-10-30 11:52:00
8:52 AM,55.0,55.0,100,30.15,1.2,SE,4.6,-,N/A,,Overcast,140,2013-10-30 12:52:00
9:52 AM,57.0,57.0,100,30.17,0.5,South,4.6,-,N/A,,Overcast,170,2013-10-30 13:52:00
10:29 AM,57.2,57.2,100,30.18,0.1,SSE,3.5,-,N/A,Fog,Fog,160,2013-10-30 14:29:00
10:52 AM,57.9,57.9,100,30.16,0.1,Calm,Calm,-,N/A,,Overcast,0,2013-10-30 14:52:00
11:17 AM,59.0,59.0,100,30.16,1.2,South,4.6,-,N/A,,Overcast,180,2013-10-30 15:17:00
11:52 AM,60.1,59.0,96,30.16,2.5,South,3.5,-,0.00,Rain,Light Rain,180,2013-10-30 15:52:00
12:52 PM,61.0,60.1,97,30.14,2.5,South,4.6,-,0.00,,Overcast,180,2013-10-30 16:52:00
12:57 PM,60.8,60.8,100,30.15,1.5,South,5.8,-,N/A,,Overcast,170,2013-10-30 16:57:00
1:09 PM,60.8,60.8,100,30.14,0.2,South,4.6,-,N/A,,Overcast,190,2013-10-30 17:09:00
1:52 PM,61.0,61.0,100,30.12,1.5,South,4.6,-,N/A,,Overcast,190,2013-10-30 17:52:00
2:09 PM,62.6,60.8,94,30.10,3.0,South,6.9,-,N/A,,Overcast,170,2013-10-30 18:09:00
2:52 PM,64.0,62.1,93,30.08,6.0,South,6.9,-,N/A,,Overcast,180,2013-10-30 18:52:00
3:52 PM,64.0,62.1,93,30.08,6.0,South,6.9,-,N/A,,Overcast,190,2013-10-30 19:52:00
4:52 PM,64.9,63.0,93,30.07,5.0,South,4.6,-,N/A,,Overcast,180,2013-10-30 20:52:00
5:52 PM,64.0,63.0,96,30.07,4.0,South,6.9,-,N/A,,Overcast,180,2013-10-30 21:52:00
6:31 PM,64.4,62.6,94,30.07,3.0,South,5.8,-,N/A,,Overcast,190,2013-10-30 22:31:00
6:52 PM,64.0,63.0,96,30.06,4.0,South,6.9,-,N/A,,Overcast,180,2013-10-30 22:52:00
7:29 PM,64.4,62.6,94,30.08,5.0,South,6.9,-,N/A,,Overcast,170,2013-10-30 23:29:00
7:52 PM,64.0,63.0,96,30.07,5.0,South,6.9,-,N/A,,Overcast,170,2013-10-30 23:52:00
8:19 PM,64.4,62.6,94,30.07,5.0,South,6.9,-,N/A,,Overcast,170,2013-10-31 00:19:00
8:52 PM,63.0,62.1,97,30.06,5.0,South,8.1,-,N/A,,Overcast,170,2013-10-31 00:52:00
9:52 PM,63.0,62.1,97,30.03,4.0,South,8.1,-,N/A,,Overcast,170,2013-10-31 01:52:00
10:52 PM,62.1,61.0,96,30.03,5.0,South,6.9,-,N/A,,Overcast,170,2013-10-31 02:52:00
11:52 PM,64.0,62.1,93,30.01,8.0,South,9.2,-,0.00,Rain,Light Rain,180,2013-10-31 03:52:00